contact:dominique.lefevre@mio.osupytheas.fr, maurice.libes@osupytheas.fr, didier.mallarino@osupytheas.fr
Project:EMSO http://www.emso-fr.org/EMSO-France
Depth: 2436.0 m
Title:EMSO Ligure Ouest : Data MII capteur MICROCAT
DateTime_Computer,Latitude,Longitude,Temperature,Conductivity,Pressure,DateTime_Instrument
DateTime_Computer,Latitude,Longitude,degC,S m-1,dbar,DateTime_Instrument
2019-11-27T00:00:03Z,42.805,6.029,13.2970,4.59966,2469.923,2019-11-27T02:00:32Z
2019-11-27T00:03:07Z,42.805,6.029,13.2967,4.59966,2469.937,2019-11-27T02:03:35Z
2019-11-27T00:06:10Z,42.805,6.029,13.2968,4.59966,2469.9,2019-11-27T02:06:38Z
2019-11-27T00:09:13Z,42.805,6.029,13.2968,4.59966,2469.947,2019-11-27T02:09:42Z
2019-11-27T00:12:16Z,42.805,6.029,13.2969,4.59968,2469.9,2019-11-27T02:12:45Z
2019-11-27T00:15:19Z,42.805,6.029,13.2968,4.59966,2469.9,2019-11-27T02:15:48Z
2019-11-27T00:18:22Z,42.805,6.029,13.2969,4.59966,2469.937,2019-11-27T02:18:51Z
2019-11-27T00:21:26Z,42.805,6.029,13.2970,4.59966,2469.937,2019-11-27T02:21:54Z
2019-11-27T00:24:29Z,42.805,6.029,13.2969,4.59967,2469.89,2019-11-27T02:24:58Z
2019-11-27T00:27:32Z,42.805,6.029,13.2965,4.59967,2469.937,2019-11-27T02:28:01Z
2019-11-27T00:30:35Z,42.805,6.029,13.2967,4.59967,2469.923,2019-11-27T02:31:04Z
2019-11-27T00:33:38Z,42.805,6.029,13.2967,4.59966,2469.914,2019-11-27T02:34:07Z
2019-11-27T00:36:42Z,42.805,6.029,13.2967,4.59969,2469.9,2019-11-27T02:37:10Z
2019-11-27T00:39:45Z,42.805,6.029,13.2967,4.59967,2469.9,2019-11-27T02:40:13Z
2019-11-27T00:42:48Z,42.805,6.029,13.2968,4.59966,2469.923,2019-11-27T02:43:17Z
2019-11-27T00:45:51Z,42.805,6.029,13.2970,4.59966,2469.9,2019-11-27T02:46:20Z
2019-11-27T00:48:54Z,42.805,6.029,13.2967,4.59967,2469.89,2019-11-27T02:49:23Z
2019-11-27T00:51:58Z,42.805,6.029,13.2965,4.59966,2469.914,2019-11-27T02:52:26Z
2019-11-27T00:55:01Z,42.805,6.029,13.2968,4.59967,2469.914,2019-11-27T02:55:30Z
2019-11-27T00:58:04Z,42.805,6.029,13.2966,4.59966,2469.876,2019-11-27T02:58:33Z
2019-11-27T01:01:07Z,42.805,6.029,13.2968,4.59968,2469.886,2019-11-27T03:01:36Z
2019-11-27T01:04:10Z,42.805,6.029,13.2968,4.59966,2469.9,2019-11-27T03:04:39Z
2019-11-27T01:07:14Z,42.805,6.029,13.2965,4.59966,2469.914,2019-11-27T03:07:42Z
2019-11-27T01:10:17Z,42.805,6.029,13.2972,4.59966,2469.923,2019-11-27T03:10:45Z
2019-11-27T01:13:20Z,42.805,6.029,13.2970,4.59966,2469.876,2019-11-27T03:13:49Z
2019-11-27T01:16:23Z,42.805,6.029,13.2970,4.59966,2469.876,2019-11-27T03:16:52Z
2019-11-27T01:19:26Z,42.805,6.029,13.2967,4.59966,2469.876,2019-11-27T03:19:55Z
2019-11-27T01:22:29Z,42.805,6.029,13.2967,4.59966,2469.876,2019-11-27T03:22:58Z
2019-11-27T01:25:33Z,42.805,6.029,13.2969,4.59966,2469.9,2019-11-27T03:26:01Z
2019-11-27T01:28:36Z,42.805,6.029,13.2971,4.59966,2469.876,2019-11-27T03:29:04Z
2019-11-27T01:31:39Z,42.805,6.029,13.2969,4.59967,2469.9,2019-11-27T03:32:08Z
2019-11-27T01:34:42Z,42.805,6.029,13.2967,4.59966,2469.914,2019-11-27T03:35:11Z
2019-11-27T01:37:46Z,42.805,6.029,13.2968,4.59966,2469.914,2019-11-27T03:38:14Z
2019-11-27T01:40:49Z,42.805,6.029,13.2971,4.59967,2469.9,2019-11-27T03:41:17Z
2019-11-27T01:43:52Z,42.805,6.029,13.2963,4.59971,2469.9,2019-11-27T03:44:21Z
2019-11-27T01:46:55Z,42.805,6.029,13.2968,4.59966,2469.9,2019-11-27T03:47:24Z
2019-11-27T01:49:59Z,42.805,6.029,13.2968,4.59967,2469.9,2019-11-27T03:50:27Z
2019-11-27T01:53:02Z,42.805,6.029,13.2965,4.59966,2469.89,2019-11-27T03:53:30Z
2019-11-27T01:56:05Z,42.805,6.029,13.2972,4.59967,2469.9,2019-11-27T03:56:34Z
2019-11-27T01:59:08Z,42.805,6.029,13.2968,4.59966,2469.923,2019-11-27T03:59:37Z
2019-11-27T02:02:11Z,42.805,6.029,13.2968,4.59968,2469.914,2019-11-27T04:02:40Z
2019-11-27T02:05:15Z,42.805,6.029,13.2968,4.59966,2469.876,2019-11-27T04:05:43Z
2019-11-27T02:08:18Z,42.805,6.029,13.2968,4.59970,2469.9,2019-11-27T04:08:47Z
2019-11-27T02:11:21Z,42.805,6.029,13.2969,4.59967,2469.89,2019-11-27T04:11:50Z
2019-11-27T02:14:24Z,42.805,6.029,13.2966,4.59966,2469.937,2019-11-27T04:14:53Z
2019-11-27T02:17:28Z,42.805,6.029,13.2968,4.59966,2469.9,2019-11-27T04:17:56Z
2019-11-27T02:20:31Z,42.805,6.029,13.2969,4.59966,2469.914,2019-11-27T04:20:59Z
2019-11-27T02:23:34Z,42.805,6.029,13.2971,4.59966,2469.914,2019-11-27T04:24:03Z
2019-11-27T02:26:37Z,42.805,6.029,13.2968,4.59967,2469.876,2019-11-27T04:27:06Z
2019-11-27T02:29:41Z,42.805,6.029,13.2967,4.59967,2469.937,2019-11-27T04:30:09Z
2019-11-27T02:32:44Z,42.805,6.029,13.2973,4.59966,2469.9,2019-11-27T04:33:12Z
2019-11-27T02:35:47Z,42.805,6.029,13.2970,4.59967,2469.914,2019-11-27T04:36:16Z
2019-11-27T02:38:50Z,42.805,6.029,13.2968,4.59966,2469.923,2019-11-27T04:39:19Z
2019-11-27T02:41:53Z,42.805,6.029,13.2967,4.59968,2469.923,2019-11-27T04:42:22Z
2019-11-27T02:44:56Z,42.805,6.029,13.2969,4.59966,2469.923,2019-11-27T04:45:25Z
2019-11-27T02:48:00Z,42.805,6.029,13.2967,4.59967,2469.923,2019-11-27T04:48:28Z
2019-11-27T02:51:03Z,42.805,6.029,13.2964,4.59967,2469.9,2019-11-27T04:51:32Z
2019-11-27T02:54:06Z,42.805,6.029,13.2969,4.59967,2469.914,2019-11-27T04:54:35Z
2019-11-27T02:57:09Z,42.805,6.029,13.2969,4.59966,2469.947,2019-11-27T04:57:38Z
2019-11-27T03:00:12Z,42.805,6.029,13.2971,4.59966,2469.914,2019-11-27T05:00:41Z
2019-11-27T03:03:16Z,42.805,6.029,13.2968,4.59968,2469.923,2019-11-27T05:03:44Z
2019-11-27T03:06:19Z,42.805,6.029,13.2968,4.59966,2469.937,2019-11-27T05:06:47Z
2019-11-27T03:09:22Z,42.805,6.029,13.2967,4.59966,2469.923,2019-11-27T05:09:51Z
2019-11-27T03:12:25Z,42.805,6.029,13.2967,4.59967,2469.923,2019-11-27T05:12:54Z
2019-11-27T03:15:28Z,42.805,6.029,13.2969,4.59967,2469.984,2019-11-27T05:15:57Z
2019-11-27T03:18:32Z,42.805,6.029,13.2968,4.59968,2469.937,2019-11-27T05:19:00Z
2019-11-27T03:21:35Z,42.805,6.029,13.2968,4.59966,2469.96,2019-11-27T05:22:03Z
2019-11-27T03:24:38Z,42.805,6.029,13.2969,4.59967,2469.886,2019-11-27T05:25:07Z
2019-11-27T03:27:41Z,42.805,6.029,13.2969,4.59967,2469.96,2019-11-27T05:28:10Z
2019-11-27T03:30:44Z,42.805,6.029,13.2968,4.59966,2469.947,2019-11-27T05:31:13Z
2019-11-27T03:33:47Z,42.805,6.029,13.2965,4.59966,2469.947,2019-11-27T05:34:16Z
2019-11-27T03:36:51Z,42.805,6.029,13.2970,4.59967,2469.947,2019-11-27T05:37:19Z
2019-11-27T03:39:54Z,42.805,6.029,13.2967,4.59966,2469.97,2019-11-27T05:40:23Z
2019-11-27T03:42:57Z,42.805,6.029,13.2966,4.59966,2469.96,2019-11-27T05:43:26Z
2019-11-27T03:46:00Z,42.805,6.029,13.2968,4.59968,2470.007,2019-11-27T05:46:29Z
2019-11-27T03:49:04Z,42.805,6.029,13.2968,4.59966,2469.923,2019-11-27T05:49:32Z
2019-11-27T03:52:07Z,42.805,6.029,13.2963,4.59966,2469.97,2019-11-27T05:52:35Z
2019-11-27T03:55:10Z,42.805,6.029,13.2968,4.59968,2469.993,2019-11-27T05:55:39Z
2019-11-27T03:58:13Z,42.805,6.029,13.2970,4.59967,2469.993,2019-11-27T05:58:42Z
2019-11-27T04:01:17Z,42.805,6.029,13.2968,4.59967,2469.947,2019-11-27T06:01:45Z
2019-11-27T04:04:20Z,42.805,6.029,13.2965,4.59968,2469.97,2019-11-27T06:04:48Z
2019-11-27T04:07:23Z,42.805,6.029,13.2968,4.59969,2469.947,2019-11-27T06:07:52Z
2019-11-27T04:10:26Z,42.805,6.029,13.2967,4.59968,2470.007,2019-11-27T06:10:55Z
2019-11-27T04:13:29Z,42.805,6.029,13.2964,4.59968,2469.993,2019-11-27T06:13:58Z
2019-11-27T04:16:32Z,42.805,6.029,13.2967,4.59968,2469.993,2019-11-27T06:17:01Z
2019-11-27T04:19:36Z,42.805,6.029,13.2965,4.59967,2470.017,2019-11-27T06:20:04Z
2019-11-27T04:22:39Z,42.805,6.029,13.2967,4.59968,2470.007,2019-11-27T06:23:08Z
2019-11-27T04:25:42Z,42.805,6.029,13.2969,4.59967,2469.993,2019-11-27T06:26:11Z
2019-11-27T04:28:45Z,42.805,6.029,13.2967,4.59966,2470.017,2019-11-27T06:29:14Z
2019-11-27T04:31:48Z,42.805,6.029,13.2967,4.59969,2469.97,2019-11-27T06:32:17Z
2019-11-27T04:34:52Z,42.805,6.029,13.2970,4.59968,2470.03,2019-11-27T06:35:20Z
2019-11-27T04:37:55Z,42.805,6.029,13.2968,4.59967,2470.03,2019-11-27T06:38:23Z
2019-11-27T04:40:58Z,42.805,6.029,13.2968,4.59968,2470.03,2019-11-27T06:41:27Z
2019-11-27T04:44:01Z,42.805,6.029,13.2969,4.59967,2470.017,2019-11-27T06:44:30Z
2019-11-27T04:47:04Z,42.805,6.029,13.2968,4.59966,2470.04,2019-11-27T06:47:33Z
2019-11-27T04:50:08Z,42.805,6.029,13.2968,4.59966,2470.053,2019-11-27T06:50:36Z
2019-11-27T04:53:11Z,42.805,6.029,13.2968,4.59968,2470.017,2019-11-27T06:53:40Z
2019-11-27T04:56:14Z,42.805,6.029,13.2964,4.59966,2470.077,2019-11-27T06:56:43Z
2019-11-27T04:59:17Z,42.805,6.029,13.2968,4.59966,2470.063,2019-11-27T06:59:46Z
2019-11-27T05:02:20Z,42.805,6.029,13.2967,4.59968,2470.053,2019-11-27T07:02:49Z
2019-11-27T05:05:24Z,42.805,6.029,13.2968,4.59967,2470.077,2019-11-27T07:05:52Z
2019-11-27T05:08:27Z,42.805,6.029,13.2972,4.59966,2470.077,2019-11-27T07:08:56Z
2019-11-27T05:11:30Z,42.805,6.029,13.2965,4.59968,2470.063,2019-11-27T07:11:59Z
2019-11-27T05:14:33Z,42.805,6.029,13.2968,4.59969,2470.1,2019-11-27T07:15:02Z
2019-11-27T05:17:37Z,42.805,6.029,13.2970,4.59968,2470.11,2019-11-27T07:18:05Z
2019-11-27T05:20:40Z,42.805,6.029,13.2967,4.59966,2470.087,2019-11-27T07:21:09Z
2019-11-27T05:23:43Z,42.805,6.029,13.2971,4.59967,2470.087,2019-11-27T07:24:12Z
2019-11-27T05:26:46Z,42.805,6.029,13.2968,4.59967,2470.073,2019-11-27T07:27:15Z
2019-11-27T05:29:49Z,42.805,6.029,13.2969,4.59968,2470.124,2019-11-27T07:30:18Z
2019-11-27T05:32:53Z,42.805,6.029,13.2969,4.59967,2470.124,2019-11-27T07:33:21Z
2019-11-27T05:35:56Z,42.805,6.029,13.2968,4.59967,2470.11,2019-11-27T07:36:24Z
2019-11-27T05:38:59Z,42.805,6.029,13.2967,4.59968,2470.11,2019-11-27T07:39:28Z
2019-11-27T05:42:02Z,42.805,6.029,13.2964,4.59967,2470.133,2019-11-27T07:42:31Z
2019-11-27T05:45:05Z,42.805,6.029,13.2966,4.59966,2470.087,2019-11-27T07:45:34Z
2019-11-27T05:48:08Z,42.805,6.029,13.2969,4.59967,2470.124,2019-11-27T07:48:37Z
2019-11-27T05:51:12Z,42.805,6.029,13.2970,4.59967,2470.11,2019-11-27T07:51:40Z
2019-11-27T05:54:15Z,42.805,6.029,13.2965,4.59968,2470.087,2019-11-27T07:54:44Z
2019-11-27T05:57:18Z,42.805,6.029,13.2968,4.59967,2470.171,2019-11-27T07:57:47Z
2019-11-27T06:00:21Z,42.805,6.029,13.2966,4.59967,2470.156,2019-11-27T08:00:50Z
2019-11-27T06:03:25Z,42.805,6.029,13.2968,4.59966,2470.133,2019-11-27T08:03:53Z
2019-11-27T06:06:28Z,42.805,6.029,13.2967,4.59968,2470.156,2019-11-27T08:06:57Z
2019-11-27T06:09:31Z,42.805,6.029,13.2970,4.59967,2470.18,2019-11-27T08:10:00Z
2019-11-27T06:12:34Z,42.805,6.029,13.2968,4.59966,2470.124,2019-11-27T08:13:03Z
2019-11-27T06:15:37Z,42.805,6.029,13.2970,4.59967,2470.217,2019-11-27T08:16:06Z
2019-11-27T06:18:41Z,42.805,6.029,13.2969,4.59967,2470.124,2019-11-27T08:19:09Z
2019-11-27T06:21:44Z,42.805,6.029,13.2968,4.59968,2470.11,2019-11-27T08:22:12Z
2019-11-27T06:24:47Z,42.805,6.029,13.2968,4.59968,2470.147,2019-11-27T08:25:16Z
2019-11-27T06:27:50Z,42.805,6.029,13.2967,4.59967,2470.194,2019-11-27T08:28:19Z
2019-11-27T06:30:53Z,42.805,6.029,13.2968,4.59968,2470.156,2019-11-27T08:31:22Z
2019-11-27T06:33:57Z,42.805,6.029,13.2968,4.59968,2470.18,2019-11-27T08:34:25Z
2019-11-27T06:37:00Z,42.805,6.029,13.2967,4.59968,2470.18,2019-11-27T08:37:28Z
2019-11-27T06:40:03Z,42.805,6.029,13.2967,4.59967,2470.133,2019-11-27T08:40:32Z
2019-11-27T06:43:06Z,42.805,6.029,13.2974,4.59968,2470.217,2019-11-27T08:43:35Z
2019-11-27T06:46:09Z,42.805,6.029,13.2972,4.59968,2470.11,2019-11-27T08:46:38Z
2019-11-27T06:49:13Z,42.805,6.029,13.2967,4.59968,2470.18,2019-11-27T08:49:41Z
2019-11-27T06:52:16Z,42.805,6.029,13.2967,4.59968,2470.18,2019-11-27T08:52:44Z
2019-11-27T06:55:19Z,42.805,6.029,13.2972,4.59969,2470.171,2019-11-27T08:55:48Z
2019-11-27T06:58:22Z,42.805,6.029,13.2967,4.59970,2470.18,2019-11-27T08:58:51Z
2019-11-27T07:01:26Z,42.805,6.029,13.2965,4.59968,2470.171,2019-11-27T09:01:54Z
2019-11-27T07:04:29Z,42.805,6.029,13.2967,4.59971,2470.147,2019-11-27T09:04:57Z
2019-11-27T07:07:32Z,42.805,6.029,13.2967,4.59968,2470.166,2019-11-27T09:08:01Z
2019-11-27T07:10:35Z,42.805,6.029,13.2970,4.59969,2470.203,2019-11-27T09:11:04Z
2019-11-27T07:13:38Z,42.805,6.029,13.2970,4.59969,2470.18,2019-11-27T09:14:07Z
2019-11-27T07:16:41Z,42.805,6.029,13.2971,4.59968,2470.156,2019-11-27T09:17:10Z
2019-11-27T07:19:45Z,42.805,6.029,13.2968,4.59968,2470.217,2019-11-27T09:20:13Z
2019-11-27T07:22:48Z,42.805,6.029,13.2970,4.59968,2470.194,2019-11-27T09:23:16Z
2019-11-27T07:25:51Z,42.805,6.029,13.2966,4.59968,2470.147,2019-11-27T09:26:20Z
2019-11-27T07:28:54Z,42.805,6.029,13.2971,4.59968,2470.18,2019-11-27T09:29:23Z
2019-11-27T07:31:57Z,42.805,6.029,13.2969,4.59968,2470.203,2019-11-27T09:32:26Z
2019-11-27T07:35:01Z,42.805,6.029,13.2967,4.59968,2470.194,2019-11-27T09:35:29Z
2019-11-27T07:38:04Z,42.805,6.029,13.2970,4.59968,2470.171,2019-11-27T09:38:32Z
2019-11-27T07:41:07Z,42.805,6.029,13.2967,4.59969,2470.156,2019-11-27T09:41:36Z
2019-11-27T07:44:10Z,42.805,6.029,13.2967,4.59969,2470.156,2019-11-27T09:44:39Z
2019-11-27T07:47:13Z,42.805,6.029,13.2965,4.59968,2470.203,2019-11-27T09:47:42Z
2019-11-27T07:50:17Z,42.805,6.029,13.2967,4.59968,2470.18,2019-11-27T09:50:45Z
2019-11-27T07:53:20Z,42.805,6.029,13.2971,4.59967,2470.156,2019-11-27T09:53:48Z
2019-11-27T07:56:23Z,42.805,6.029,13.2971,4.59971,2470.18,2019-11-27T09:56:52Z
2019-11-27T07:59:26Z,42.805,6.029,13.2968,4.59968,2470.18,2019-11-27T09:59:55Z
2019-11-27T08:02:30Z,42.805,6.029,13.2968,4.59971,2470.194,2019-11-27T10:02:58Z
2019-11-27T08:05:33Z,42.805,6.029,13.2968,4.59968,2470.203,2019-11-27T10:06:02Z
2019-11-27T08:08:36Z,42.805,6.029,13.2970,4.59968,2470.18,2019-11-27T10:09:05Z
2019-11-27T08:11:39Z,42.805,6.029,13.2967,4.59968,2470.217,2019-11-27T10:12:08Z
2019-11-27T08:14:43Z,42.805,6.029,13.2966,4.59968,2470.18,2019-11-27T10:15:11Z
2019-11-27T08:17:46Z,42.805,6.029,13.2965,4.59969,2470.156,2019-11-27T10:18:14Z
2019-11-27T08:20:49Z,42.805,6.029,13.2970,4.59968,2470.18,2019-11-27T10:21:18Z
2019-11-27T08:23:52Z,42.805,6.029,13.2967,4.59968,2470.203,2019-11-27T10:24:21Z
2019-11-27T08:26:55Z,42.805,6.029,13.2970,4.59969,2470.227,2019-11-27T10:27:24Z
2019-11-27T08:29:59Z,42.805,6.029,13.2970,4.59969,2470.194,2019-11-27T10:30:27Z
2019-11-27T08:33:02Z,42.805,6.029,13.2967,4.59968,2470.203,2019-11-27T10:33:30Z
2019-11-27T08:36:05Z,42.805,6.029,13.2967,4.59967,2470.18,2019-11-27T10:36:34Z
2019-11-27T08:39:08Z,42.805,6.029,13.2968,4.59968,2470.203,2019-11-27T10:39:37Z
2019-11-27T08:42:11Z,42.805,6.029,13.2968,4.59968,2470.156,2019-11-27T10:42:40Z
2019-11-27T08:45:14Z,42.805,6.029,13.2965,4.59969,2470.189,2019-11-27T10:45:43Z
2019-11-27T08:48:18Z,42.805,6.029,13.2968,4.59968,2470.18,2019-11-27T10:48:46Z
2019-11-27T08:51:21Z,42.805,6.029,13.2967,4.59969,2470.194,2019-11-27T10:51:50Z
2019-11-27T08:54:24Z,42.805,6.029,13.2968,4.59968,2470.203,2019-11-27T10:54:53Z
2019-11-27T08:57:27Z,42.805,6.029,13.2965,4.59968,2470.156,2019-11-27T10:57:56Z
2019-11-27T09:00:30Z,42.805,6.029,13.2969,4.59968,2470.156,2019-11-27T11:00:59Z
2019-11-27T09:03:34Z,42.805,6.029,13.2967,4.59968,2470.171,2019-11-27T11:04:02Z
2019-11-27T09:06:37Z,42.805,6.029,13.2968,4.59970,2470.18,2019-11-27T11:07:05Z
2019-11-27T09:09:40Z,42.805,6.029,13.2966,4.59967,2470.18,2019-11-27T11:10:09Z
2019-11-27T09:12:43Z,42.805,6.029,13.2967,4.59968,2470.147,2019-11-27T11:13:12Z
2019-11-27T09:15:47Z,42.805,6.029,13.2966,4.59968,2470.18,2019-11-27T11:16:15Z
2019-11-27T09:18:50Z,42.805,6.029,13.2969,4.59969,2470.147,2019-11-27T11:19:18Z
2019-11-27T09:21:53Z,42.805,6.029,13.2968,4.59969,2470.156,2019-11-27T11:22:22Z
2019-11-27T09:24:56Z,42.805,6.029,13.2970,4.59970,2470.133,2019-11-27T11:25:25Z
2019-11-27T09:27:59Z,42.805,6.029,13.2967,4.59969,2470.133,2019-11-27T11:28:28Z
2019-11-27T09:31:03Z,42.805,6.029,13.2968,4.59968,2470.156,2019-11-27T11:31:31Z
2019-11-27T09:34:06Z,42.805,6.029,13.2968,4.59969,2470.133,2019-11-27T11:34:34Z
2019-11-27T09:37:09Z,42.805,6.029,13.2966,4.59968,2470.147,2019-11-27T11:37:38Z
2019-11-27T09:40:12Z,42.805,6.029,13.2971,4.59968,2470.171,2019-11-27T11:40:41Z
2019-11-27T09:43:15Z,42.805,6.029,13.2967,4.59968,2470.171,2019-11-27T11:43:44Z
2019-11-27T09:46:19Z,42.805,6.029,13.2966,4.59968,2470.147,2019-11-27T11:46:47Z
2019-11-27T09:49:22Z,42.805,6.029,13.2967,4.59968,2470.147,2019-11-27T11:49:50Z
2019-11-27T09:52:25Z,42.805,6.029,13.2970,4.59968,2470.156,2019-11-27T11:52:54Z
2019-11-27T09:55:28Z,42.805,6.029,13.2967,4.59968,2470.171,2019-11-27T11:55:57Z
2019-11-27T09:58:32Z,42.805,6.029,13.2971,4.59968,2470.133,2019-11-27T11:59:00Z
2019-11-27T10:01:35Z,42.805,6.029,13.2966,4.59968,2470.147,2019-11-27T12:02:03Z
2019-11-27T10:04:38Z,42.805,6.029,13.2970,4.59968,2470.133,2019-11-27T12:05:07Z
2019-11-27T10:07:41Z,42.805,6.029,13.2971,4.59968,2470.161,2019-11-27T12:08:10Z
2019-11-27T10:10:44Z,42.805,6.029,13.2970,4.59968,2470.133,2019-11-27T12:11:13Z
2019-11-27T10:13:48Z,42.805,6.029,13.2973,4.59968,2470.133,2019-11-27T12:14:16Z
2019-11-27T10:16:51Z,42.805,6.029,13.2967,4.59968,2470.11,2019-11-27T12:17:19Z
2019-11-27T10:19:54Z,42.805,6.029,13.2966,4.59970,2470.133,2019-11-27T12:20:23Z
2019-11-27T10:22:57Z,42.805,6.029,13.2971,4.59968,2470.11,2019-11-27T12:23:26Z
2019-11-27T10:26:00Z,42.805,6.029,13.2967,4.59968,2470.11,2019-11-27T12:26:29Z
2019-11-27T10:29:04Z,42.805,6.029,13.2963,4.59968,2470.11,2019-11-27T12:29:32Z
2019-11-27T10:32:07Z,42.805,6.029,13.2968,4.59969,2470.133,2019-11-27T12:32:35Z
2019-11-27T10:35:10Z,42.805,6.029,13.2967,4.59968,2470.124,2019-11-27T12:35:39Z
2019-11-27T10:38:13Z,42.805,6.029,13.2968,4.59970,2470.124,2019-11-27T12:38:42Z
2019-11-27T10:41:16Z,42.805,6.029,13.2968,4.59969,2470.11,2019-11-27T12:41:45Z
2019-11-27T10:44:19Z,42.805,6.029,13.2968,4.59968,2470.147,2019-11-27T12:44:48Z
2019-11-27T10:47:23Z,42.805,6.029,13.2967,4.59968,2470.11,2019-11-27T12:47:51Z
2019-11-27T10:50:26Z,42.805,6.029,13.2971,4.59968,2470.147,2019-11-27T12:50:55Z
2019-11-27T10:53:29Z,42.805,6.029,13.2966,4.59968,2470.147,2019-11-27T12:53:58Z
2019-11-27T10:56:32Z,42.805,6.029,13.2967,4.59969,2470.11,2019-11-27T12:57:01Z
2019-11-27T10:59:36Z,42.805,6.029,13.2971,4.59968,2470.087,2019-11-27T13:00:04Z
2019-11-27T11:02:39Z,42.805,6.029,13.2965,4.59968,2470.1,2019-11-27T13:03:08Z
2019-11-27T11:05:42Z,42.805,6.029,13.2966,4.59968,2470.1,2019-11-27T13:06:11Z
2019-11-27T11:08:45Z,42.805,6.029,13.2972,4.59968,2470.133,2019-11-27T13:09:14Z
2019-11-27T11:11:49Z,42.805,6.029,13.2969,4.59968,2470.063,2019-11-27T13:12:17Z
2019-11-27T11:14:52Z,42.805,6.029,13.2966,4.59969,2470.087,2019-11-27T13:15:20Z
2019-11-27T11:17:55Z,42.805,6.029,13.2971,4.59968,2470.087,2019-11-27T13:18:24Z
2019-11-27T11:20:58Z,42.805,6.029,13.2968,4.59968,2470.087,2019-11-27T13:21:27Z
2019-11-27T11:24:01Z,42.805,6.029,13.2970,4.59968,2470.087,2019-11-27T13:24:30Z
2019-11-27T11:27:05Z,42.805,6.029,13.2967,4.59967,2470.087,2019-11-27T13:27:33Z
2019-11-27T11:30:08Z,42.805,6.029,13.2966,4.59968,2470.04,2019-11-27T13:30:36Z
2019-11-27T11:33:11Z,42.805,6.029,13.2968,4.59968,2470.087,2019-11-27T13:33:40Z
2019-11-27T11:36:14Z,42.805,6.029,13.2967,4.59968,2470.053,2019-11-27T13:36:43Z
2019-11-27T11:39:17Z,42.805,6.029,13.2968,4.59968,2470.053,2019-11-27T13:39:46Z
2019-11-27T11:42:21Z,42.805,6.029,13.2969,4.59967,2470.053,2019-11-27T13:42:49Z
2019-11-27T11:45:24Z,42.805,6.029,13.2972,4.59970,2470.077,2019-11-27T13:45:52Z
2019-11-27T11:48:27Z,42.805,6.029,13.2968,4.59968,2470.077,2019-11-27T13:48:56Z
2019-11-27T11:51:30Z,42.805,6.029,13.2971,4.59968,2470.063,2019-11-27T13:51:59Z
2019-11-27T11:54:33Z,42.805,6.029,13.2967,4.59968,2470.077,2019-11-27T13:55:02Z
2019-11-27T11:57:37Z,42.805,6.029,13.2968,4.59969,2470.063,2019-11-27T13:58:05Z
2019-11-27T12:00:40Z,42.805,6.029,13.2968,4.59967,2470.063,2019-11-27T14:01:08Z
2019-11-27T12:03:43Z,42.805,6.029,13.2969,4.59969,2470.077,2019-11-27T14:04:12Z
2019-11-27T12:06:46Z,42.805,6.029,13.2968,4.59968,2470.017,2019-11-27T14:07:15Z
2019-11-27T12:09:49Z,42.805,6.029,13.2968,4.59967,2470.1,2019-11-27T14:10:18Z
2019-11-27T12:12:53Z,42.805,6.029,13.2968,4.59967,2470.04,2019-11-27T14:13:21Z
2019-11-27T12:15:56Z,42.805,6.029,13.2967,4.59967,2470.053,2019-11-27T14:16:24Z
2019-11-27T12:18:59Z,42.805,6.029,13.2968,4.59967,2470.053,2019-11-27T14:19:28Z
2019-11-27T12:22:02Z,42.805,6.029,13.2968,4.59968,2470.053,2019-11-27T14:22:31Z
2019-11-27T12:25:05Z,42.805,6.029,13.2969,4.59968,2470.053,2019-11-27T14:25:34Z
2019-11-27T12:28:09Z,42.805,6.029,13.2971,4.59967,2470.053,2019-11-27T14:28:37Z
2019-11-27T12:31:12Z,42.805,6.029,13.2967,4.59968,2470.03,2019-11-27T14:31:40Z
2019-11-27T12:34:15Z,42.805,6.029,13.2970,4.59968,2470.03,2019-11-27T14:34:44Z
2019-11-27T12:37:18Z,42.805,6.029,13.2964,4.59968,2470.017,2019-11-27T14:37:47Z
2019-11-27T12:40:21Z,42.805,6.029,13.2971,4.59968,2470.053,2019-11-27T14:40:50Z
2019-11-27T12:43:25Z,42.805,6.029,13.2966,4.59968,2470.017,2019-11-27T14:43:53Z
2019-11-27T12:46:28Z,42.805,6.029,13.2966,4.59968,2470.03,2019-11-27T14:46:57Z
2019-11-27T12:49:31Z,42.805,6.029,13.2969,4.59969,2470.04,2019-11-27T14:50:00Z
2019-11-27T12:52:34Z,42.805,6.029,13.2968,4.59968,2470.04,2019-11-27T14:53:03Z
2019-11-27T12:55:38Z,42.805,6.029,13.2968,4.59968,2470.017,2019-11-27T14:56:07Z
2019-11-27T12:58:41Z,42.805,6.029,13.2966,4.59967,2470.04,2019-11-27T14:59:10Z
2019-11-27T13:01:44Z,42.805,6.029,13.2968,4.59967,2470.063,2019-11-27T15:02:13Z
2019-11-27T13:04:48Z,42.805,6.029,13.2967,4.59968,2470.017,2019-11-27T15:05:16Z
2019-11-27T13:07:51Z,42.805,6.029,13.2968,4.59967,2470.04,2019-11-27T15:08:20Z
2019-11-27T13:10:54Z,42.805,6.029,13.2969,4.59968,2470.03,2019-11-27T15:11:23Z
2019-11-27T13:13:57Z,42.805,6.029,13.2967,4.59968,2470.017,2019-11-27T15:14:26Z
2019-11-27T13:17:01Z,42.805,6.029,13.2966,4.59967,2469.993,2019-11-27T15:17:29Z
2019-11-27T13:20:04Z,42.805,6.029,13.2968,4.59967,2470.007,2019-11-27T15:20:33Z
2019-11-27T13:23:07Z,42.805,6.029,13.2967,4.59969,2470.017,2019-11-27T15:23:36Z
2019-11-27T13:26:10Z,42.805,6.029,13.2968,4.59967,2470.04,2019-11-27T15:26:39Z
2019-11-27T13:29:13Z,42.805,6.029,13.2970,4.59968,2470.017,2019-11-27T15:29:42Z
2019-11-27T13:32:17Z,42.805,6.029,13.2967,4.59968,2469.993,2019-11-27T15:32:45Z
2019-11-27T13:35:20Z,42.805,6.029,13.2970,4.59969,2470.007,2019-11-27T15:35:49Z
2019-11-27T13:38:23Z,42.805,6.029,13.2966,4.59968,2469.993,2019-11-27T15:38:52Z
2019-11-27T13:41:26Z,42.805,6.029,13.2962,4.59968,2470.03,2019-11-27T15:41:55Z
2019-11-27T13:44:29Z,42.805,6.029,13.2971,4.59967,2470.007,2019-11-27T15:44:58Z
2019-11-27T13:47:33Z,42.805,6.029,13.2969,4.59967,2469.993,2019-11-27T15:48:01Z
2019-11-27T13:50:36Z,42.805,6.029,13.2968,4.59966,2470.03,2019-11-27T15:51:05Z
2019-11-27T13:53:39Z,42.805,6.029,13.2969,4.59967,2469.984,2019-11-27T15:54:08Z
2019-11-27T13:56:42Z,42.805,6.029,13.2969,4.59967,2469.97,2019-11-27T15:57:11Z
2019-11-27T13:59:45Z,42.805,6.029,13.2968,4.59968,2470.04,2019-11-27T16:00:14Z
2019-11-27T14:02:49Z,42.805,6.029,13.2969,4.59967,2469.984,2019-11-27T16:03:17Z
2019-11-27T14:05:52Z,42.805,6.029,13.2972,4.59968,2470.017,2019-11-27T16:06:21Z
2019-11-27T14:08:55Z,42.805,6.029,13.2970,4.59967,2470.007,2019-11-27T16:09:24Z
2019-11-27T14:11:58Z,42.805,6.029,13.2969,4.59966,2470.017,2019-11-27T16:12:27Z
2019-11-27T14:15:02Z,42.805,6.029,13.2971,4.59967,2469.97,2019-11-27T16:15:30Z
2019-11-27T14:18:05Z,42.805,6.029,13.2967,4.59968,2469.993,2019-11-27T16:18:34Z
2019-11-27T14:21:08Z,42.805,6.029,13.2965,4.59966,2470.017,2019-11-27T16:21:37Z
2019-11-27T14:24:11Z,42.805,6.029,13.2971,4.59969,2469.993,2019-11-27T16:24:40Z
2019-11-27T14:27:15Z,42.805,6.029,13.2967,4.59967,2470.03,2019-11-27T16:27:43Z
2019-11-27T14:30:18Z,42.805,6.029,13.2967,4.59969,2470.017,2019-11-27T16:30:47Z
2019-11-27T14:33:21Z,42.805,6.029,13.2970,4.59968,2469.97,2019-11-27T16:33:50Z
2019-11-27T14:36:24Z,42.805,6.029,13.2967,4.59967,2469.97,2019-11-27T16:36:53Z
2019-11-27T14:39:28Z,42.805,6.029,13.2967,4.59966,2469.97,2019-11-27T16:39:56Z
2019-11-27T14:42:31Z,42.805,6.029,13.2967,4.59968,2469.993,2019-11-27T16:42:59Z
2019-11-27T14:45:34Z,42.805,6.029,13.2968,4.59970,2469.993,2019-11-27T16:46:03Z
2019-11-27T14:48:37Z,42.805,6.029,13.2967,4.59967,2469.984,2019-11-27T16:49:06Z
2019-11-27T14:54:43Z,42.805,6.029,13.2964,4.59967,2470.007,2019-11-27T16:55:12Z
2019-11-27T14:57:46Z,42.805,6.029,13.2968,4.59968,2470.03,2019-11-27T16:58:15Z
2019-11-27T15:00:50Z,42.805,6.029,13.2967,4.59968,2469.993,2019-11-27T17:01:18Z
2019-11-27T15:03:53Z,42.805,6.029,13.2969,4.59967,2469.993,2019-11-27T17:04:22Z